Schaupps, Nebraska
Current Conditions -  °F | °C
As of 12:53 AM on Saturday 29 Nov 2014 (Local Time) from KODX Reporting Station
Clear Clear  
Wind Chill: 51°   Ceiling: Unl
Heat Index: 51°   Visibility: 10mi
Dew Point: 20°   Wind: 10mph
Humidity: 29%   Direction: 250°WSW
Pressure: 29.56"   Gusts: NA
Location:  41.3°N, 98.8143°W
Report Text: KODX 290653Z AUTO 25009KT 10SM CLR 11/M07 A2956 RMK AO2 SLP007 T01061067 $
Loading
Personal Weather Stations






























Interactive Weather Map New forecast layout! Learn more

10-Day Weather Forecast

Advertisements
Track Severe Weather on mobile